Wind_Speed
12 12 12 12 13 12 11 11 10 10 9 9 9 9 9 8 7 6 6 5 5 4 4 4 4 4 4 5 6 6 7 7 7 7 7 7 7 7 6 6 5 4 2 2 1 1 2 2 2
13 12 12 12 14 11 11 11 11 11 11 11 10 10 9 9 8 7 6 6 5 5 4 4 4 4 4 5 5 6 6 6 7 7 7 7 6 6 6 4 4 3 3 2 2 2 2 3 2
13 13 12 14 13 12 12 12 11 11 12 12 11 10 9 9 9 8 7 7 6 5 5 4 4 5 5 5 5 6 6 6 7 7 7 6 6 5 5 4 4 2 2 3 3 3 3 2 2
13 13 14 14 13 12 12 12 11 11 11 11 11 10 10 10 9 8 8 7 6 5 4 4 4 5 5 5 5 5 6 6 7 6 6 5 5 5 4 4 4 3 3 3 3 2 2 2 2
13 14 15 13 12 12 12 12 11 11 11 11 11 11 10 10 10 9 8 8 7 5 4 3 4 4 5 6 6 5 6 6 6 6 5 4 4 3 3 3 3 3 2 2 2 3 1 1 2
13 14 14 13 12 12 12 12 11 11 11 11 11 11 10 10 10 9 9 8 7 6 5 4 3 4 5 6 5 6 6 6 6 6 5 4 3 3 2 2 4 3 2 2 2 3 3 3 2
13 14 13 12 12 11 11 11 11 11 11 11 11 11 11 10 10 10 10 9 7 7 6 5 3 3 4 5 5 6 6 6 6 5 4 3 3 2 2 3 4 2 2 2 2 2 2 2 2
12 13 12 11 11 11 11 11 11 11 11 11 11 11 11 11 10 10 9 8 8 7 6 5 4 4 4 5 5 5 5 5 5 4 4 4 3 2 2 3 4 3 3 1 2 3 2 2 2
11 12 10 10 10 10 10 11 11 10 10 11 11 11 10 10 10 11 10 8 8 7 7 7 6 5 5 5 5 5 4 4 4 3 3 3 3 2 1 2 3 3 2 1 2 3 3 2 3
10 10 8 8 9 9 10 10 10 10 10 10 10 10 9 9 10 10 9 9 8 8 8 8 8 7 7 6 5 4 4 4 3 3 3 3 3 2 2 2 2 1 2 2 2 2 2 2 2
9 9 8 7 8 9 10 10 9 9 9 9 9 9 9 9 9 9 9 9 9 8 7 7 7 7 7 6 5 4 4 3 3 3 3 3 3 3 2 1 1 0 0 1 2 2 2 2 2
8 8 7 7 7 8 9 9 9 9 9 9 8 8 8 8 9 9 9 9 9 8 8 8 7 7 7 6 6 5 4 4 3 3 2 2 2 2 1 1 0 1 1 1 1 2 2 3 3
7 7 6 6 6 7 7 8 8 8 8 8 7 7 7 8 9 9 8 8 9 9 9 9 8 8 7 7 6 6 5 4 4 4 3 2 2 1 1 1 1 2 2 2 2 2 2 3 3
6 5 5 5 6 6 7 7 7 7 7 7 7 7 7 8 8 8 8 8 8 9 9 9 8 8 8 7 7 6 5 5 4 4 3 3 2 1 0 1 2 2 2 2 2 3 3 2 3
5 4 4 4 5 5 6 7 6 7 7 6 7 7 7 7 7 7 7 7 7 7 8 8 8 8 8 7 7 7 6 5 5 4 3 3 2 2 1 1 1 2 2 2 3 3 3 3 3
3 3 2 2 2 3 4 6 5 6 6 6 6 7 6 6 6 6 7 7 6 6 7 7 7 8 7 7 7 6 6 6 5 4 4 3 3 2 2 1 1 1 2 3 3 3 3 3 3
2 1 1 1 1 1 2 3 4 4 5 5 5 6 5 6 6 5 5 6 6 6 6 6 6 6 6 6 6 6 6 6 5 5 4 3 3 2 2 2 2 2 2 3 3 4 3 3 4
3 1 1 2 2 1 1 1 2 3 4 4 4 5 5 5 5 5 5 5 5 5 5 5 5 5 5 6 6 6 6 6 5 5 5 4 4 3 3 3 3 3 3 4 4 4 4 5 5
4 2 2 3 2 1 1 1 2 3 3 3 4 4 4 5 4 4 4 4 4 4 4 4 4 4 4 4 5 5 5 6 6 6 5 5 5 5 4 4 4 4 4 5 5 5 5 6 6
4 4 4 4 3 3 2 3 3 3 3 4 4 4 4 5 4 4 4 3 3 3 3 3 3 3 3 3 4 5 5 5 6 6 6 6 6 6 5 5 5 5 5 5 5 5 6 7 8
6 6 6 5 4 4 4 4 5 4 4 4 4 4 4 4 4 4 4 4 3 3 3 2 3 3 3 4 5 5 5 5 6 6 6 6 6 6 5 5 6 6 6 6 6 6 7 8 9
8 8 7 6 5 6 5 5 7 6 5 5 4 4 4 4 4 4 4 4 4 3 3 3 4 4 4 4 5 5 5 6 6 6 6 7 7 7 6 6 6 6 6 7 7 8 8 9 9
10 10 8 8 7 7 7 6 7 7 6 6 5 5 5 5 5 5 4 5 5 4 4 4 4 5 5 5 5 6 6 6 7 7 7 7 7 8 8 7 7 8 8 8 9 10 10 10 11
11 10 10 9 8 9 8 7 7 7 7 6 6 6 6 6 6 6 6 5 5 5 5 5 6 6 6 6 6 6 7 7 8 9 8 8 8 8 9 9 9 9 9 10 10 11 11 11 11
11 10 10 10 9 10 10 9 9 9 8 7 7 7 7 7 7 7 6 6 6 6 6 7 7 7 7 7 8 8 8 9 10 11 11 10 10 10 10 10 9 9 10 10 10 11 12 12 12
13 12 11 11 10 11 12 11 10 9 9 9 8 8 7 7 8 7 7 7 7 7 7 7 8 8 8 8 9 10 10 11 12 12 12 12 12 11 11 10 11 11 11 11 11 11 12 12 12
15 14 12 12 11 12 12 12 11 10 10 10 10 9 8 8 8 8 8 8 8 8 8 8 8 9 9 9 10 11 12 13 13 13 13 13 13 13 12 11 11 11 11 12 12 12 13 13 13
16 15 14 12 12 12 12 12 12 11 10 10 10 10 9 9 9 9 9 9 9 9 9 10 10 11 11 11 11 11 12 12 12 12 12 11 12 12 12 12 12 12 12 12 13 14 14 14 14
17 16 14 14 13 12 11 12 11 11 10 11 11 11 11 10 11 10 10 10 10 11 11 11 11 12 12 13 13 13 13 12 12 12 13 12 13 13 14 14 14 14 13 13 14 15 15 15 15
18 17 16 15 15 14 13 13 13 12 11 11 12 12 12 11 11 11 11 11 12 12 12 12 13 13 14 14 14 14 14 14 14 14 14 14 14 15 15 15 15 15 15 15 15 16 16 16 17
Wind_Direction
84 83 79 80 77 73 80 81 80 78 78 80 84 84 82 80 84 88 93 102 110 106 111 115 139 149 146 145 141 140 141 140 138 134 140 146 148 153 154 152 156 158 161 164 181 166 191 208 191
81 79 76 75 76 79 77 80 81 80 78 76 79 79 77 78 78 85 94 100 105 100 106 110 122 131 137 140 142 137 135 137 139 139 140 146 152 157 160 158 169 168 180 191 191 187 208 200 188
79 77 75 75 75 80 80 79 80 79 76 74 75 75 74 74 77 83 86 92 97 94 100 110 116 126 136 143 146 142 139 138 140 142 142 145 147 152 165 173 177 189 199 199 191 196 200 213 219
80 78 75 74 73 77 78 76 77 80 77 75 73 71 69 69 73 79 83 87 88 84 84 94 110 130 143 141 145 141 139 142 139 140 142 143 148 160 168 167 172 185 195 186 178 167 191 223 237
83 80 75 74 73 76 76 72 73 75 75 74 73 71 67 67 73 76 79 81 81 80 86 83 116 131 144 149 143 136 135 142 144 141 141 139 141 142 150 166 171 190 196 188 179 174 179 163 205
86 83 80 79 74 75 73 70 68 69 70 69 69 68 67 69 74 73 76 81 76 75 77 87 122 135 141 142 143 143 144 141 146 147 146 140 144 148 152 164 167 177 185 161 158 180 196 177 191
86 84 83 81 75 72 72 70 67 65 64 66 65 65 67 70 73 73 79 80 78 77 79 90 107 124 133 137 143 150 147 143 146 150 152 153 165 174 168 169 175 174 175 142 160 188 194 203 222
88 81 78 79 78 73 71 70 70 67 65 66 64 64 68 73 73 74 76 76 76 75 71 71 81 111 124 130 137 147 140 135 141 140 149 166 179 192 195 193 202 199 193 187 197 213 209 221 230
88 82 80 80 76 71 68 69 68 66 63 64 63 64 69 71 71 73 70 69 72 71 68 70 80 101 119 127 136 131 134 131 138 144 152 170 183 189 184 182 195 194 194 206 212 218 224 230 232
94 91 84 78 73 71 69 67 65 65 66 67 68 67 66 66 70 68 64 66 72 70 69 73 81 95 108 114 121 126 131 132 137 148 165 167 175 179 174 173 181 196 234 231 226 220 233 239 243
98 93 86 76 72 70 68 66 65 68 70 71 71 68 62 61 68 65 62 63 65 67 69 73 80 91 101 105 106 112 120 125 127 123 145 157 160 160 167 193 214 306 297 274 255 252 257 270 263
102 93 83 77 71 68 66 64 65 68 73 72 72 70 63 63 68 65 64 63 62 64 69 73 81 85 91 96 94 93 91 97 100 105 123 137 146 153 168 212 256 267 279 273 262 271 269 284 296
104 97 84 73 66 63 63 64 64 66 68 68 70 65 59 60 66 67 64 62 61 61 65 71 78 81 83 82 82 84 85 90 87 85 95 105 113 141 174 235 259 269 261 261 277 268 274 279 293
117 104 82 69 66 62 63 61 58 59 60 63 64 60 56 58 64 64 60 58 62 59 58 65 73 76 79 79 76 75 78 83 84 83 83 88 84 80 28 274 287 280 266 269 269 275 278 282 291
121 102 84 68 58 57 58 53 47 48 53 57 54 53 56 59 65 62 58 54 56 57 58 60 65 70 73 75 75 71 74 79 73 73 68 65 60 52 5 320 313 303 282 277 277 280 281 287 297
125 93 61 52 45 50 56 47 43 47 46 50 50 47 49 53 58 62 60 56 55 56 58 59 61 64 66 68 67 68 72 72 70 64 54 43 36 27 9 342 340 316 289 279 281 277 282 286 297
116 91 0 354 4 32 56 43 35 39 40 36 36 35 37 40 44 54 58 58 55 55 60 63 61 60 63 64 61 61 62 61 58 49 39 28 16 13 10 355 347 327 311 301 300 294 297 296 296
189 210 290 306 318 345 18 6 12 21 22 16 10 14 18 22 29 35 42 47 47 49 57 59 55 55 55 52 49 48 45 44 40 31 20 13 5 348 336 336 331 321 313 307 302 297 297 297 302
215 231 281 290 290 311 332 329 329 345 351 358 359 358 357 357 9 13 17 24 31 35 41 44 41 40 37 29 25 26 24 20 16 14 10 2 354 347 336 329 325 316 309 306 301 294 293 295 300
243 256 271 282 286 293 295 304 307 318 328 344 349 341 339 340 343 349 351 356 5 13 14 14 9 2 357 357 357 358 1 360 0 3 358 351 346 345 344 334 325 314 306 303 304 298 293 296 297
255 258 260 267 279 288 296 313 303 302 311 327 338 337 329 325 323 325 325 328 333 334 344 353 346 336 328 328 329 332 336 338 341 344 341 343 345 343 338 332 325 320 311 302 302 299 296 296 296
256 255 257 259 270 283 284 298 298 301 311 319 321 322 319 315 312 312 312 314 314 318 321 330 335 330 320 320 320 318 319 322 324 327 333 338 340 337 330 324 322 321 316 306 298 295 296 295 298
251 254 257 260 264 270 279 280 286 296 303 308 308 303 301 303 305 307 310 313 313 310 303 309 323 326 323 323 319 320 321 322 325 325 327 329 329 326 320 314 312 310 309 305 300 298 295 295 296
251 253 260 265 268 272 272 269 274 283 289 291 293 291 292 296 299 302 305 306 309 308 305 307 316 319 315 315 315 315 317 316 317 316 315 316 316 316 315 312 308 305 304 303 301 303 300 297 296
247 250 261 268 269 270 271 262 263 269 277 277 281 283 283 289 294 296 295 296 300 305 306 308 313 316 314 312 312 313 312 310 308 308 307 307 307 307 307 307 307 305 305 306 306 305 302 302 300
244 244 247 254 262 267 275 267 263 268 272 272 274 277 276 285 289 287 288 291 294 302 308 306 307 311 313 313 311 310 308 307 309 309 305 302 304 304 304 303 304 305 305 305 304 305 304 305 303
244 245 247 256 264 268 271 272 267 268 270 271 272 273 273 279 284 284 284 286 290 297 303 302 304 306 306 306 306 305 306 306 306 306 306 297 298 300 302 302 301 303 305 305 304 304 304 303 304
244 246 247 250 258 265 275 276 268 263 268 267 267 267 271 272 277 282 283 286 287 291 296 296 298 300 301 301 301 300 302 305 308 307 307 301 296 297 299 298 298 299 300 303 304 305 304 302 302
248 247 248 250 251 256 267 271 267 265 265 264 263 265 268 271 275 277 276 282 284 288 291 292 294 296 298 300 302 303 299 300 301 301 300 300 299 297 295 295 295 297 298 300 303 304 301 300 301
248 248 250 251 255 256 259 264 265 262 262 263 264 261 261 266 272 274 275 278 281 285 287 286 288 292 297 298 300 303 300 297 296 297 296 296 297 296 294 293 293 293 296 297 300 301 299 299 300
Height
5904 5903 5903 5903 5904 5904 5903 5902 5901 5900 5899 5897 5896 5896 5895 5894 5894 5895 5892 5890 5890 5890 5889 5889 5889 5889 5888 5888 5888 5889 5888 5888 5888 5889 5889 5890 5891 5892 5892 5893 5893 5894 5894 5895 5895 5895 5895 5895 5896
5905 5905 5906 5906 5906 5906 5905 5903 5902 5901 5900 5898 5897 5897 5896 5895 5894 5893 5891 5891 5891 5890 5890 5889 5889 5889 5888 5889 5889 5889 5889 5889 5890 5890 5890 5891 5892 5892 5893 5893 5893 5893 5894 5894 5895 5895 5895 5896 5896
5907 5907 5908 5908 5908 5907 5906 5904 5903 5902 5900 5899 5899 5898 5897 5896 5894 5893 5892 5892 5891 5891 5890 5889 5889 5889 5889 5889 5890 5890 5890 5890 5890 5891 5892 5892 5893 5893 5893 5893 5894 5894 5893 5894 5894 5895 5895 5896 5896
5909 5910 5911 5911 5910 5909 5907 5906 5904 5903 5902 5901 5900 5899 5898 5896 5895 5894 5893 5892 5892 5891 5891 5890 5890 5890 5890 5890 5890 5890 5891 5891 5891 5892 5893 5893 5893 5894 5894 5894 5894 5894 5894 5894 5894 5895 5895 5895 5895
5912 5912 5913 5913 5912 5911 5909 5907 5906 5905 5904 5902 5901 5900 5899 5897 5896 5895 5894 5893 5893 5892 5891 5890 5890 5890 5890 5890 5890 5891 5891 5892 5892 5893 5893 5894 5894 5894 5894 5894 5894 5894 5894 5895 5895 5895 5896 5895 5895
5914 5914 5916 5915 5914 5913 5911 5909 5908 5907 5905 5904 5902 5901 5900 5899 5897 5896 5895 5894 5893 5893 5892 5890 5890 5890 5891 5891 5891 5892 5892 5893 5893 5894 5894 5894 5894 5895 5895 5894 5895 5895 5895 5895 5895 5896 5896 5896 5896
5917 5917 5917 5917 5916 5915 5913 5911 5910 5908 5907 5906 5904 5903 5901 5900 5898 5897 5896 5895 5894 5893 5892 5891 5890 5890 5891 5891 5892 5892 5893 5893 5894 5894 5894 5894 5895 5895 5895 5895 5895 5895 5895 5895 5896 5896 5896 5896 5896
5918 5920 5920 5919 5918 5916 5915 5913 5911 5910 5908 5907 5906 5905 5903 5902 5900 5899 5898 5897 5895 5894 5893 5892 5890 5890 5891 5892 5892 5893 5894 5894 5894 5895 5895 5895 5895 5895 5895 5895 5896 5896 5896 5896 5896 5896 5896 5896 5896
5920 5923 5922 5921 5919 5918 5916 5914 5913 5911 5910 5909 5907 5906 5905 5903 5902 5900 5899 5898 5897 5895 5894 5892 5891 5890 5891 5892 5893 5894 5894 5895 5895 5895 5895 5895 5895 5895 5895 5895 5895 5896 5896 5896 5896 5896 5896 5896 5896
5922 5924 5922 5921 5920 5919 5917 5916 5914 5913 5912 5911 5909 5908 5907 5905 5904 5903 5901 5900 5898 5897 5896 5894 5893 5892 5893 5894 5894 5895 5895 5895 5895 5895 5895 5895 5895 5896 5896 5896 5896 5896 5896 5896 5896 5896 5895 5895 5896
5923 5924 5923 5922 5921 5920 5918 5917 5916 5915 5914 5912 5911 5910 5909 5907 5906 5905 5903 5902 5900 5899 5898 5897 5896 5895 5895 5896 5896 5896 5896 5896 5896 5896 5896 5896 5896 5896 5896 5897 5897 5896 5896 5896 5895 5895 5895 5895 5895
5925 5925 5924 5923 5922 5921 5920 5919 5918 5916 5916 5914 5913 5911 5910 5909 5908 5907 5905 5904 5902 5901 5900 5899 5898 5897 5897 5897 5897 5897 5897 5897 5897 5897 5897 5897 5896 5897 5897 5897 5897 5897 5896 5896 5895 5895 5895 5895 5895
5926 5926 5925 5924 5923 5922 5921 5920 5919 5918 5917 5915 5914 5913 5912 5910 5909 5908 5907 5906 5905 5903 5902 5901 5900 5900 5899 5899 5899 5899 5899 5898 5898 5898 5897 5897 5898 5897 5897 5897 5897 5896 5896 5896 5895 5895 5895 5895 5894
5927 5926 5926 5925 5924 5923 5922 5921 5921 5919 5918 5917 5915 5914 5913 5912 5911 5910 5909 5908 5907 5905 5904 5903 5902 5902 5902 5901 5901 5900 5900 5899 5899 5899 5898 5898 5898 5898 5897 5897 5897 5896 5896 5896 5895 5895 5895 5895 5894
5928 5928 5927 5926 5925 5924 5924 5923 5922 5921 5919 5918 5917 5916 5915 5913 5912 5912 5911 5909 5908 5908 5907 5906 5905 5904 5903 5903 5902 5902 5901 5900 5900 5900 5899 5899 5898 5898 5897 5897 5896 5896 5896 5895 5895 5895 5894 5894 5894
5928 5929 5929 5928 5926 5926 5927 5925 5924 5922 5921 5920 5918 5917 5916 5915 5914 5913 5912 5911 5910 5909 5909 5908 5907 5906 5905 5904 5904 5903 5902 5901 5901 5900 5900 5899 5898 5898 5897 5897 5896 5896 5895 5895 5895 5894 5894 5893 5893
5930 5931 5930 5928 5927 5926 5926 5926 5925 5923 5922 5921 5920 5919 5918 5917 5916 5915 5914 5913 5912 5911 5910 5909 5908 5908 5907 5906 5905 5904 5903 5903 5902 5901 5900 5899 5898 5898 5897 5897 5896 5896 5895 5894 5894 5894 5893 5893 5892
5930 5930 5929 5929 5927 5927 5926 5926 5925 5924 5923 5922 5921 5920 5919 5918 5917 5916 5915 5914 5913 5912 5911 5910 5910 5909 5908 5907 5906 5906 5905 5904 5903 5902 5900 5899 5898 5897 5897 5896 5896 5895 5894 5894 5893 5893 5892 5892 5891
5928 5929 5929 5928 5927 5927 5926 5926 5925 5924 5923 5922 5921 5920 5919 5918 5918 5916 5915 5914 5914 5913 5912 5911 5911 5910 5909 5908 5907 5906 5905 5904 5903 5902 5901 5899 5898 5897 5896 5895 5895 5894 5894 5893 5892 5892 5891 5891 5890
5927 5928 5928 5928 5927 5926 5926 5926 5925 5924 5923 5922 5921 5920 5920 5919 5918 5917 5916 5915 5914 5914 5913 5912 5911 5910 5909 5909 5908 5907 5906 5904 5903 5902 5901 5899 5898 5897 5896 5895 5894 5893 5893 5892 5891 5890 5890 5889 5888
5926 5926 5926 5926 5926 5926 5926 5926 5925 5924 5923 5922 5921 5920 5919 5919 5918 5917 5916 5915 5914 5914 5913 5912 5911 5910 5909 5908 5908 5907 5905 5904 5903 5902 5900 5899 5898 5896 5895 5894 5893 5892 5892 5891 5890 5889 5888 5887 5886
5924 5924 5924 5925 5925 5926 5926 5926 5925 5923 5923 5922 5921 5920 5919 5918 5918 5917 5916 5915 5914 5913 5912 5912 5911 5910 5909 5908 5907 5906 5905 5904 5902 5901 5900 5898 5897 5896 5895 5894 5892 5891 5890 5889 5888 5888 5886 5885 5884
5921 5921 5922 5922 5923 5924 5925 5925 5925 5922 5922 5921 5920 5919 5918 5918 5917 5916 5915 5915 5914 5913 5912 5911 5910 5909 5908 5907 5906 5905 5904 5903 5901 5900 5898 5897 5896 5894 5893 5892 5891 5890 5889 5888 5887 5886 5884 5883 5882
5918 5919 5920 5920 5922 5923 5923 5923 5923 5922 5921 5920 5919 5918 5917 5917 5916 5915 5914 5914 5913 5912 5911 5910 5909 5908 5907 5906 5905 5904 5903 5901 5900 5899 5898 5896 5895 5893 5892 5891 5889 5888 5887 5886 5884 5883 5882 5880 5879
5916 5918 5920 5920 5921 5922 5920 5919 5920 5919 5918 5918 5917 5917 5916 5916 5915 5914 5913 5912 5912 5911 5910 5909 5908 5907 5906 5905 5904 5903 5902 5900 5899 5897 5896 5894 5893 5892 5890 5889 5887 5886 5884 5883 5882 5880 5879 5878 5876
5913 5915 5917 5919 5919 5919 5916 5916 5917 5916 5915 5915 5915 5915 5914 5914 5913 5913 5912 5911 5910 5909 5908 5908 5907 5906 5905 5904 5902 5901 5900 5898 5897 5895 5893 5892 5891 5889 5888 5886 5885 5884 5882 5881 5879 5878 5876 5875 5874
5909 5910 5912 5914 5914 5914 5914 5913 5913 5912 5912 5912 5912 5912 5912 5912 5911 5911 5910 5909 5908 5907 5907 5906 5905 5904 5903 5902 5900 5899 5898 5896 5895 5893 5891 5890 5888 5887 5886 5884 5883 5881 5880 5878 5877 5875 5873 5872 5870
5905 5907 5908 5910 5910 5911 5911 5910 5910 5909 5909 5909 5909 5909 5909 5909 5909 5908 5907 5907 5906 5905 5905 5904 5903 5902 5901 5900 5898 5897 5895 5894 5892 5891 5889 5887 5886 5885 5883 5882 5880 5879 5877 5876 5874 5872 5870 5869 5867
5901 5903 5903 5905 5906 5907 5908 5910 5906 5906 5906 5906 5906 5906 5906 5906 5906 5905 5904 5904 5903 5903 5902 5901 5900 5899 5898 5897 5895 5894 5892 5891 5889 5888 5887 5885 5883 5882 5880 5879 5877 5876 5874 5873 5871 5869 5867 5865 5863
5897 5898 5900 5901 5901 5902 5903 5907 5902 5902 5902 5903 5903 5903 5903 5903 5903 5902 5902 5901 5900 5900 5899 5898 5897 5896 5895 5893 5892 5890 5889 5887 5885 5884 5883 5882 5880 5878 5877 5875 5874 5872 5871 5869 5867 5865 5863 5861 5859